Location: Brahman Valley
(40.6513°N, 111.8855°W)
Time: 08:04:33
(UTC+00:00)

Tiros 1 despin weight - Pass Details

Date: 20 May 2021
Orbit: 594 x 641 km, 48.2° (Epoch: 22 June)

Event Time Altitude Azimuth Distance (km) Brightness Sun altitude
Rises 03:03:02 0° 275° (W) 2,913 ? -4.3°
Reaches altitude 10° 03:05:31 10° 285° (WNW) 2,013 ? -4.7°
Maximum altitude 03:09:46 35° 351° (N) 1,038 ? -5.4°
Drops below altitude 10° 03:14:04 10° 57° (ENE) 2,031 ? -6.1°
Sets 03:16:35 0° 67° (ENE) 2,943 ? -6.5°
